This demonstration page uses our WeatherBlox Daily Observations layout. Learn more.

41.55636, -103.73856

Hourly Observations for September 12, 2019

Temp ( °F °C ) Dew Point ( °F °C ) Humidity (%) Winds ( mph kmh ) Pressure ( in mb ) Visibility ( mi km ) Precip ( " mm )
12:58 am 00:58 Mostly Cloudy with Rain 59 14.8 53 11.7 82 82 NW 10 17 29.96 1014 10 16.0934 0.06 1.524
1:58 am 01:58 Cloudy with Light Showers 58 14.3 55 12.6 90 90 WSW 7 11 29.97 1015 10 16.0934 0.03 0.762
3:58 am 03:58 Cloudy with Light Showers 57 14.1 48 9.1 72 72 WNW 7 11 29.98 1015 10 16.0934 0 0
4:58 am 04:58 Mostly Cloudy 55 12.6 48 9 79 79 NW 9 15 29.97 1015 10 16.0934 0 0
5:58 am 05:58 Mostly Cloudy with Light Showers 55 12.9 47 8.5 75 75 N 13 20 30.01 1016 10 16.0934 0 0
6:58 am 06:58 Mostly Cloudy 54 12 45 7 72 72 NNW 10 17 30.04 1017 10 16.0934 0 0
7:58 am 07:58 Mostly Cloudy 52 10.9 46 7.7 81 81 WNW 13 20 30.06 1018 10 16.0934 0 0
8:58 am 08:58 Partly Cloudy 50 10.2 42 5.4 72 72 NW 15 24 30.09 1019 10 16.0934 0 0
9:58 am 09:58 Clear 48 8.8 40 4.5 75 75 WNW 10 17 30.09 1019 10 16.0934 0 0
10:58 am 10:58 Clear 46 7.8 40 4.3 79 79 WNW 10 17 30.09 1019 10 16.0934 0 0
11:58 am 11:58 Clear 43 6.3 40 4.3 87 87 W 7 11 30.12 1020 10 16.0934 0 0
12:58 pm 12:58 Sunny 46 8 41 4.8 80 80 NW 12 19 30.12 1020 10 16.0934 0 0
1:58 pm 13:58 Sunny 52 10.9 42 5.7 71 71 W 12 19 30.11 1020 10 16.0934 0 0
2:58 pm 14:58 Sunny 58 14.2 43 6.3 59 59 WNW 21 33 30.12 1020 10 16.0934 0 0
3:58 pm 15:58 Sunny 61 16 41 5.1 49 49 NW 29 46 30.11 1020 10 16.0934 0 0
5:56 pm 17:56 Sunny 65 18.3 39 3.7 38 38 WNW 26 43 30.13 1020 10 16.0934 0 0
6:56 pm 18:56 Partly Cloudy 65 18.2 40 4.2 40 40 NW 25 41 30.14 1021 10 16.0934 0 0
7:58 pm 19:58 Partly Cloudy 67 19.2 38 3.5 35 35 NW 24 39 30.14 1021 10 16.0934 0 0
8:58 pm 20:58 Mostly Cloudy 67 19.5 38 3.5 35 35 NW 24 39 30.13 1020 10 16.0934 0 0
9:58 pm 21:58 Mostly Sunny 69 20.4 37 2.5 31 31 NNW 21 33 30.14 1021 10 16.0934 0 0
10:58 pm 22:58 Mostly Sunny 69 20.4 35 1.8 29 29 NNW 22 35 30.15 1021 10 16.0934 0 0
11:58 pm 23:58 Sunny 67 19.4 35 1.5 30 30 NNW 20 31 30.17 1022 10 16.0934 0 0

Powered by AerisWeather